Bloomington, IL

1:17 PM CDT on July 22, 2017 (GMT -0500)
Central Ill Regional

Weather History for KBMI - May, 2013

Change the Weather History Date:

Wednesday, May 22, 2013

  Actual Average Record
Temperature  
Mean Temperature 66 °F -  
Max Temperature 72 °F 65 °F 86 °F (2007)
Min Temperature 59 °F 45 °F 39 °F (2003)
Cooling Degree Days 2    
Growing Degree Days 16 (Base 50)    
Moisture  
Dew Point 61 °F    
Average Humidity 84    
Maximum Humidity 100    
Minimum Humidity 53    
Precipitation  
Precipitation 0.16 in - - ()
Sea Level Pressure  
Sea Level Pressure 29.70 in    
Wind  
Wind Speed 12 mph (SW)    
Max Wind Speed 20 mph    
Max Gust Speed 25 mph    
Visibility 8 miles    
Events Rain    
Averages and records for this station are not official NWS values.
T = Trace of Precipitation, MM = Missing Value Source: NWS Daily Summary

Daily Weather History Graph

Daily Weather History Graph

Search for Another Location

Airport or City:

Trip Planner

Search our weather history database for the weather conditions in past years. The results will help you decide how hot, cold, wet, or windy it might be!

Date:

Astronomy

May. 22, 2013 Rise Set
Actual Time 5:33 AM CDT 8:12 PM CDT
Civil Twilight 5:01 AM CDT 8:43 PM CDT
Nautical Twilight 4:22 AM CDT 9:23 PM CDT
Astronomical Twilight 3:37 AM CDT 10:08 PM CDT
Moon 5:33 PM CDT 3:37 AM CDT
Length of Visible Light 15h 42m
Length of Day
14h 38m
Waxing Gibbous, 91% of the Moon is Illuminated
May 22
Waxing Gibbous
May 24
Full
May 31
Last Quarter
Jun 8
New
Jun 16
First Quarter

Hourly Weather History & Observations

Time (CDT) Temp. Dew Point Humidity Pressure Visibility Wind Dir Wind Speed Gust Speed Precip Events Conditions
12:56 AM 68.9 °F 64.9 °F 87% 29.68 in 10.0 mi SSW 11.5 mph - N/A   Mostly Cloudy
1:56 AM 68.0 °F 63.9 °F 87% 29.70 in 10.0 mi SSW 15.0 mph - N/A   Mostly Cloudy
2:56 AM 66.9 °F 64.9 °F 93% 29.66 in 10.0 mi SSW 13.8 mph - 0.00 in   Overcast
3:13 AM 66.2 °F 64.4 °F 94% 29.70 in 10.0 mi SSW 12.7 mph - N/A   Mostly Cloudy
3:20 AM 66.2 °F 64.4 °F 94% 29.70 in 10.0 mi SSW 12.7 mph - N/A   Overcast
3:31 AM 66.2 °F 64.4 °F 94% 29.69 in 10.0 mi SSW 13.8 mph - N/A   Overcast
3:56 AM 66.9 °F 64.9 °F 93% 29.66 in 10.0 mi SSW 10.4 mph - N/A   Overcast
4:56 AM 65.8 °F 64.9 °F 97% 29.67 in 3.0 mi SW 6.9 mph - 0.04 in Rain Light Rain
5:13 AM 66.2 °F 64.4 °F 94% 29.71 in 6.0 mi SW 8.1 mph - 0.00 in   Mostly Cloudy
5:56 AM 64.9 °F 64.9 °F 100% 29.66 in 4.0 mi SSW 9.2 mph - 0.00 in Rain Light Rain
6:56 AM 64.9 °F 63.9 °F 96% 29.64 in 2.5 mi South 6.9 mph - 0.00 in   Mostly Cloudy
7:12 AM 64.4 °F 64.4 °F 100% 29.66 in 2.5 mi South 5.8 mph - N/A   Scattered Clouds
7:23 AM 64.4 °F 64.4 °F 100% 29.66 in 2.5 mi SW 8.1 mph - N/A   Mostly Cloudy
7:56 AM 65.8 °F 63.9 °F 93% 29.66 in 3.0 mi SSW 11.5 mph - N/A   Overcast
8:22 AM 64.4 °F 64.4 °F 100% 29.70 in 4.0 mi SSW 15.0 mph - N/A   Overcast
8:56 AM 65.8 °F 63.9 °F 93% 29.66 in 5.0 mi SSW 15.0 mph - 0.00 in   Overcast
9:56 AM 63.9 °F 63.0 °F 97% 29.68 in 2.0 mi SW 19.6 mph 25.3 mph 0.05 in Rain Rain
10:56 AM 64.9 °F 61.9 °F 90% 29.70 in 10.0 mi West 11.5 mph - 0.06 in Rain Light Rain
11:08 AM 64.4 °F 62.6 °F 94% 29.72 in 8.0 mi West 10.4 mph - 0.00 in Rain Light Rain
11:22 AM 64.4 °F 60.8 °F 88% 29.73 in 8.0 mi West 11.5 mph - 0.00 in   Mostly Cloudy
11:56 AM 66.9 °F 59.0 °F 76% 29.71 in 10.0 mi West 9.2 mph - 0.00 in   Scattered Clouds
12:56 PM 70.9 °F 55.9 °F 59% 29.71 in 10.0 mi West 11.5 mph - N/A   Partly Cloudy
1:56 PM 72.9 °F 55.9 °F 55% 29.70 in 10.0 mi WSW 11.5 mph 19.6 mph N/A   Scattered Clouds
2:56 PM 70.9 °F 55.9 °F 59% 29.71 in 10.0 mi WSW 17.3 mph 21.9 mph N/A   Mostly Cloudy
3:56 PM 72.0 °F 54.0 °F 53% 29.70 in 10.0 mi WSW 16.1 mph - N/A   Mostly Cloudy
4:56 PM 70.0 °F 54.9 °F 59% 29.70 in 10.0 mi WSW 13.8 mph 20.7 mph N/A   Mostly Cloudy
5:56 PM 70.0 °F 56.8 °F 63% 29.71 in 10.0 mi West 12.7 mph - 0.01 in   Mostly Cloudy
6:56 PM 66.9 °F 55.9 °F 68% 29.73 in 10.0 mi West 16.1 mph - N/A   Overcast
7:56 PM 64.9 °F 54.9 °F 70% 29.75 in 10.0 mi West 15.0 mph 19.6 mph N/A   Overcast
8:56 PM 63.9 °F 54.9 °F 72% 29.77 in 10.0 mi West 12.7 mph 20.7 mph N/A   Overcast
9:56 PM 61.9 °F 54.9 °F 78% 29.80 in 10.0 mi West 11.5 mph - N/A   Overcast
10:56 PM 61.0 °F 54.9 °F 80% 29.81 in 10.0 mi West 12.7 mph - N/A   Mostly Cloudy
11:56 PM 59.9 °F 54.9 °F 83% 29.81 in 10.0 mi West 9.2 mph - N/A   Mostly Cloudy